IBE6030 LEMD-EGBB

Flight info

Callsign IBE6030
Flight time N/A
Altitude 34000
Route RBO N867 DGO/N0482F400 N867 BLV P87 BELEN DCT DIDIG UP87 MOKOR UN873 OLEBA DCT ROGPU DCT DIKRO UM184 HEMEL
Aircraft B742/H-SDFHIRWXY/L

Departure

Time 2026-04-30 19:43
Airport Adolfo Suárez Madrid–Barajas Airport (LEMD)

Arrival

Time N/A
Airport Birmingham Airport (EGBB)
Time Latitude Longitude Altitude Speed Heading
2026-04-30 19:36 40.49302 -3.56904 1973 ft 2 kts 91°
2026-04-30 19:36 40.49303 -3.56923 1974 ft 2 kts 102°
2026-04-30 19:36 40.49314 -3.56959 1976 ft 2 kts 122°
2026-04-30 19:37 40.49324 -3.56975 1977 ft 2 kts 132°
2026-04-30 19:37 40.49335 -3.56988 1978 ft 2 kts 142°
2026-04-30 19:37 40.49348 -3.56999 1978 ft 2 kts 153°
2026-04-30 19:37 40.49362 -3.57006 1978 ft 2 kts 163°
2026-04-30 19:38 40.49376 -3.57010 1978 ft 2 kts 173°
2026-04-30 19:38 40.49390 -3.57011 1977 ft 0 kts 180°
2026-04-30 19:39 40.49377 -3.57011 1978 ft 5 kts 180°
2026-04-30 19:39 40.49329 -3.57033 1980 ft 10 kts 223°
2026-04-30 19:39 40.49255 -3.57109 1984 ft 16 kts 205°
2026-04-30 19:40 40.49181 -3.57203 1989 ft 11 kts 258°
2026-04-30 19:40 40.49179 -3.57248 1990 ft 2 kts 268°
2026-04-30 19:40 40.49179 -3.57258 1990 ft 0 kts 272°
2026-04-30 19:41 40.49179 -3.57260 1990 ft 1 kts 271°
2026-04-30 19:41 40.49180 -3.57301 1991 ft 7 kts 271°
2026-04-30 19:41 40.49181 -3.57395 1993 ft 12 kts 285°
2026-04-30 19:41 40.49265 -3.57459 1994 ft 17 kts 14°
2026-04-30 19:42 40.49352 -3.57461 1994 ft 13 kts 352°
2026-04-30 19:42 40.49365 -3.57462 1994 ft 0 kts 357°
2026-04-30 19:42 40.49366 -3.57462 1994 ft 1 kts 357°
2026-04-30 19:42 40.49697 -3.57466 1993 ft 107 kts 359°
2026-04-30 19:43 40.50774 -3.57464 2296 ft 185 kts 359°
2026-04-30 19:43 40.52062 -3.57487 3246 ft 187 kts 358°
2026-04-30 19:43 40.53416 -3.57511 3761 ft 197 kts 359°
2026-04-30 19:44 40.56196 -3.57197 4914 ft 211 kts 21°
2026-04-30 19:44 40.57563 -3.56417 5493 ft 220 kts 26°
2026-04-30 19:44 40.58954 -3.55476 6082 ft 233 kts 29°
2026-04-30 19:44 40.60419 -3.54414 6768 ft 245 kts 30°
2026-04-30 19:45 40.61907 -3.53304 7509 ft 255 kts 30°
2026-04-30 19:45 40.63470 -3.52125 8312 ft 263 kts 30°
2026-04-30 19:45 40.65071 -3.50913 9144 ft 269 kts 30°
2026-04-30 19:45 40.66701 -3.49677 9996 ft 274 kts 30°
2026-04-30 19:46 40.68327 -3.48441 10840 ft 277 kts 30°
2026-04-30 19:46 40.70008 -3.47163 11694 ft 280 kts 30°
2026-04-30 19:46 40.71681 -3.45890 12521 ft 282 kts 29°
2026-04-30 19:46 40.73383 -3.44593 13333 ft 283 kts 29°
2026-04-30 19:47 40.75075 -3.43305 14117 ft 283 kts 29°
2026-04-30 19:47 40.76203 -3.42445 14636 ft 284 kts 29°
2026-04-30 19:47 40.78481 -3.40709 15650 ft 283 kts 29°
2026-04-30 19:47 40.80168 -3.39421 16376 ft 283 kts 29°
2026-04-30 19:48 40.81861 -3.38129 17083 ft 282 kts 29°
2026-04-30 19:48 40.83548 -3.36840 17767 ft 282 kts 29°
2026-04-30 19:48 40.85257 -3.35533 18440 ft 282 kts 29°
2026-04-30 19:48 40.86931 -3.34248 19086 ft 282 kts 30°
2026-04-30 19:49 40.88633 -3.32925 19723 ft 282 kts 30°
2026-04-30 19:49 40.92000 -3.30329 20928 ft 282 kts 30°
2026-04-30 19:49 40.93711 -3.29016 21505 ft 283 kts 30°
2026-04-30 19:50 40.95394 -3.27724 22056 ft 283 kts 30°
2026-04-30 19:50 40.97106 -3.26410 22599 ft 283 kts 30°
2026-04-30 19:50 40.98809 -3.25101 23134 ft 283 kts 30°
2026-04-30 19:50 41.00503 -3.23799 23645 ft 283 kts 30°
2026-04-30 19:51 41.02190 -3.22502 24136 ft 284 kts 30°
2026-04-30 19:51 41.03910 -3.21178 24618 ft 284 kts 30°
2026-04-30 19:51 41.05682 -3.20097 24946 ft 286 kts 11°
2026-04-30 19:51 41.07658 -3.19608 25364 ft 286 kts
2026-04-30 19:52 41.09628 -3.19202 25767 ft 288 kts
2026-04-30 19:52 41.11625 -3.18774 26150 ft 291 kts
2026-04-30 19:52 41.13635 -3.18328 26545 ft 293 kts
2026-04-30 19:52 41.15625 -3.17882 26920 ft 295 kts
2026-04-30 19:53 41.17675 -3.17421 27287 ft 297 kts
2026-04-30 19:53 41.19722 -3.16959 27651 ft 299 kts
2026-04-30 19:53 41.21783 -3.16494 28003 ft 302 kts
2026-04-30 19:53 41.23851 -3.16028 28362 ft 304 kts
2026-04-30 19:54 41.25929 -3.15559 28707 ft 306 kts
2026-04-30 19:54 41.28046 -3.15080 29098 ft 307 kts
2026-04-30 19:54 41.30160 -3.14602 29430 ft 309 kts
2026-04-30 19:54 41.32288 -3.14121 29761 ft 312 kts
2026-04-30 19:55 41.34421 -3.13638 30126 ft 313 kts
2026-04-30 19:55 41.36592 -3.13146 30482 ft 314 kts
2026-04-30 19:55 41.38728 -3.12662 30815 ft 316 kts
2026-04-30 19:55 41.40926 -3.12163 31174 ft 317 kts
2026-04-30 19:56 41.43100 -3.11670 31522 ft 318 kts
2026-04-30 19:56 41.45295 -3.11172 31862 ft 320 kts
2026-04-30 19:56 41.47490 -3.10673 32212 ft 321 kts
2026-04-30 19:56 41.49698 -3.10170 32530 ft 324 kts
2026-04-30 19:57 41.51930 -3.09664 32861 ft 325 kts
2026-04-30 19:57 41.54156 -3.09160 33186 ft 327 kts
2026-04-30 19:57 41.56403 -3.08651 33531 ft 328 kts
2026-04-30 19:57 41.58660 -3.08140 33788 ft 333 kts
2026-04-30 19:58 41.60977 -3.07614 33857 ft 344 kts
2026-04-30 19:58 41.63390 -3.07067 33870 ft 357 kts
2026-04-30 19:58 41.65888 -3.06499 33870 ft 372 kts
2026-04-30 19:58 41.68479 -3.05910 33870 ft 386 kts
2026-04-30 19:59 41.71190 -3.05293 33870 ft 402 kts
2026-04-30 19:59 41.73978 -3.04657 33872 ft 417 kts
2026-04-30 19:59 41.79956 -3.03283 33874 ft 448 kts
2026-04-30 20:00 41.83073 -3.02565 33878 ft 462 kts
2026-04-30 20:00 41.86270 -3.01828 33879 ft 476 kts
2026-04-30 20:00 41.89577 -3.01066 33880 ft 489 kts
2026-04-30 20:00 41.92951 -3.00287 33881 ft 501 kts
2026-04-30 20:01 41.99989 -2.98658 33882 ft 514 kts
2026-04-30 20:01 42.06998 -2.97031 33883 ft 507 kts
2026-04-30 20:02 42.17436 -2.94604 33879 ft 508 kts
2026-04-30 20:03 42.27855 -2.92173 33876 ft 507 kts
2026-04-30 20:03 42.34817 -2.90544 33868 ft 506 kts
2026-04-30 20:04 42.41769 -2.88919 33862 ft 508 kts
2026-04-30 20:05 42.52292 -2.88223 33857 ft 504 kts 355°
2026-04-30 20:05 42.62767 -2.88937 33859 ft 502 kts 355°
2026-04-30 20:06 42.69712 -2.89342 33856 ft 503 kts 355°
2026-04-30 20:06 42.76734 -2.89715 33859 ft 503 kts 355°
2026-04-30 20:07 42.83752 -2.90080 33857 ft 502 kts 355°
2026-04-30 20:08 42.94217 -2.90628 33860 ft 502 kts 355°
2026-04-30 20:08 43.01156 -2.90993 33867 ft 502 kts 355°
2026-04-30 20:09 43.08147 -2.91361 33863 ft 501 kts 355°
2026-04-30 20:09 43.18585 -2.91912 33869 ft 499 kts 355°
2026-04-30 20:10 43.28979 -2.92444 33857 ft 500 kts 357°
2026-04-30 20:11 43.39390 -2.90131 33865 ft 505 kts 10°
2026-04-30 20:11 43.46232 -2.87988 33861 ft 504 kts 10°
2026-04-30 20:12 43.53566 -2.85768 33857 ft 498 kts
2026-04-30 20:13 43.60323 -2.83767 33856 ft 504 kts
2026-04-30 20:13 43.67177 -2.81744 33851 ft 497 kts
2026-04-30 20:14 43.73946 -2.79634 33834 ft 501 kts 10°
2026-04-30 20:14 43.80738 -2.77405 33822 ft 500 kts 10°
2026-04-30 20:15 43.87460 -2.75195 33819 ft 498 kts
2026-04-30 20:15 43.94260 -2.73117 33821 ft 496 kts
2026-04-30 20:16 44.01053 -2.71653 33822 ft 495 kts
2026-04-30 20:16 44.07893 -2.70230 33819 ft 495 kts
2026-04-30 20:17 44.14690 -2.68757 33822 ft 495 kts
2026-04-30 20:17 44.21476 -2.67256 33823 ft 494 kts
2026-04-30 20:18 44.28293 -2.65739 33821 ft 493 kts
2026-04-30 20:18 44.35044 -2.64233 33820 ft 492 kts
2026-04-30 20:19 44.41817 -2.62720 33824 ft 492 kts
2026-04-30 20:19 44.48534 -2.61216 33823 ft 489 kts
2026-04-30 20:20 44.55251 -2.59708 33820 ft 490 kts
2026-04-30 20:20 44.62013 -2.58188 33821 ft 489 kts
2026-04-30 20:21 44.68702 -2.56679 33821 ft 487 kts
2026-04-30 20:21 44.75386 -2.55168 33819 ft 486 kts
2026-04-30 20:22 44.82082 -2.53652 33822 ft 487 kts
2026-04-30 20:22 44.88755 -2.52137 33820 ft 485 kts
2026-04-30 20:23 44.95425 -2.50618 33820 ft 485 kts
2026-04-30 20:23 45.02063 -2.49104 33820 ft 485 kts
2026-04-30 20:24 45.08708 -2.47582 33821 ft 476 kts
2026-04-30 20:24 45.15308 -2.46073 33823 ft 484 kts
2026-04-30 20:25 45.25264 -2.43784 33827 ft 482 kts
2026-04-30 20:26 45.35189 -2.41493 33826 ft 482 kts
2026-04-30 20:26 45.45161 -2.39185 33825 ft 481 kts
2026-04-30 20:27 45.58390 -2.36109 33824 ft 480 kts
2026-04-30 20:28 45.71620 -2.32933 33826 ft 480 kts
2026-04-30 20:30 45.87823 -2.29069 33826 ft 480 kts